Flight Track Log - Related Links

Times and Time Zones

All times are in EDT time to prevent confusion due to time zone crossing. See the ASH2690 flight status page for this flight to view local times or setup timezone preferences in your user account.

Time Position Orientation Groundspeed Altitude Reporting Facility
EDT Latitude Longitude Course Direction KTS MPH feet Rate Location/Type
02:39PM 35.2414 -80.9592 24° Northeast 177 204 1,800  Level Atlanta Center
02:40PM 35.2778 -80.9961 320° Northwest 202 232 3,600 1,815 Climbing Atlanta Center
02:41PM 35.3425 -80.9986 358° North 219 252 5,400 2,300 Climbing Atlanta Center
02:42PM 35.4175 -80.9933 North 236 272 8,200 2,700 Climbing Atlanta Center
02:43PM 35.6501 -80.7107 24° Northeast  Level Estimated
02:43PM 35.4953 -81.0186 345° North 265 305 10,800  Level Atlanta Center
02:44PM 35.7591 -80.6507 24° Northeast  Level Estimated
02:44PM 35.5875 -81.0253 357° North 299 344 12,400  Level Atlanta Center
02:45PM 35.6814 -81.0347 355° North 328 377 14,900 2,100 Climbing Atlanta Center
02:47PM 35.8786 -80.9967 North 349 402 18,700 1,800 Climbing Atlanta Center
02:48PM 35.9761 -80.9750 10° North 349 402 20,300 1,550 Climbing Atlanta Center
02:49PM 36.0800 -80.9506 11° North 360 414 21,800 1,250 Climbing Atlanta Center
02:50PM 36.1875 -80.9131 16° North 379 436 22,800 1,200 Climbing Atlanta Center
02:51PM 36.2864 -80.8653 21° North 397 457 24,200 1,300 Climbing Atlanta Center
02:52PM 36.3978 -80.8172 19° North 411 473 25,400 1,250 Climbing Atlanta Center
02:53PM 36.5131 -80.7608 21° North 426 490 26,700 1,100 Climbing Atlanta Center
02:54PM 36.6303 -80.7069 20° North 436 502 27,600 950 Climbing Atlanta Center
02:55PM 36.7603 -80.6497 19° North 443 510 28,600 921 Climbing Atlanta Center
02:58PM 37.1200 -80.4889 20° North 482 555 31,300 843 Climbing Washington Center
02:59PM 37.2497 -80.4294 20° North 482 555 32,000 934 Climbing Washington Center
03:00PM 37.3772 -80.3694 21° North 482 555 33,200 1,109 Climbing Washington Center
03:01PM 37.5047 -80.3119 20° North 482 555 34,200 900 Climbing Washington Center
03:02PM 37.6344 -80.2494 21° North 482 555 35,000 400 Climbing Washington Center
03:03PM 37.7639 -80.1917 19° North 482 555 35,000  Level Washington Center
03:04PM 37.8978 -80.1261 21° North 488 562 35,000 492 Level Washington Center
03:05PM 38.0250 -80.0678 20° North 494 568 36,000 1,008 Climbing Washington Center
03:06PM 38.1525 -80.0069 21° North 494 568 37,000 508 Climbing Washington Center
03:07PM 38.2800 -79.9456 21° North 489 563 37,000  Level Washington Center
03:08PM 38.4053 -79.8842 21° North 489 563 37,000  Level Washington Center
03:09PM 38.5344 -79.8225 20° North 484 557 37,000  Level Washington Center
03:10PM 38.6575 -79.7658 20° North 478 550 37,000  Level Washington Center
03:11PM 38.7825 -79.7036 21° North 478 550 37,000  Level Washington Center
03:13PM 39.0550 -79.5633 22° Northeast 459 528 37,000  Level Cleveland Center
03:14PM 39.1717 -79.5067 21° North 454 522 37,000  Level Cleveland Center
03:15PM 39.2894 -79.4478 21° North 453 521 37,000  Level Cleveland Center
03:16PM 39.4103 -79.3878 21° North 462 532 37,000  Level Cleveland Center
03:17PM 39.5583 -79.3142 21° North 473 544 37,000  Level Cleveland Center
03:18PM 39.6819 -79.2519 21° North 479 551 37,000  Level Cleveland Center
03:20PM 39.8014 -79.1928 21° North 473 544 37,000  Level Cleveland Center
03:21PM 39.9169 -79.1336 21° North 455 524 37,000  Level Cleveland Center
03:22PM 40.0339 -79.0742 21° North 455 524 37,000  Level Cleveland Center
03:23PM 40.1608 -79.0106 21° North 448 516 37,000  Level Cleveland Center
03:24PM 40.2769 -78.9511 21° North 451 519 37,000  Level Cleveland Center
03:25PM 40.4128 -78.8808 21° North 445 512 37,000  Level Cleveland Center
03:26PM 40.5247 -78.8233 21° North 440 506 37,000  Level Cleveland Center
03:27PM 40.6361 -78.7667 21° North 436 502 37,000  Level Cleveland Center
03:28PM 40.7472 -78.7092 21° North 433 498 37,000  Level Cleveland Center
03:29PM 40.8689 -78.6447 22° Northeast 429 494 37,000 -97 Level Cleveland Center
03:30PM 40.9797 -78.5883 21° North 428 493 36,800 -484 Descending Cleveland Center
03:31PM 41.0903 -78.5272 23° Northeast 433 498 36,000 -1,008 Descending Cleveland Center
03:32PM 41.2014 -78.4719 21° North 430 495 34,700 -960 Descending Cleveland Center
03:33PM 41.3331 -78.4028 22° Northeast 427 491 34,000 -339 Descending Cleveland Center
03:34PM 41.4397 -78.3453 22° Northeast 427 491 34,000 -97 Level Cleveland Center
03:35PM 41.5531 -78.2856 22° Northeast 436 502 33,800 -774 Descending Cleveland Center
03:36PM 41.6544 -78.2006 32° Northeast 430 495 32,400 -1,403 Descending Cleveland Center
03:37PM 41.7717 -78.0844 36° Northeast 434 499 30,900 -1,355 Descending Cleveland Center
03:38PM 41.8703 -77.9847 37° Northeast 445 512 29,600 -1,210 Descending Cleveland Center
03:39PM 41.9653 -77.8872 37° Northeast 449 517 28,400 -1,008 Descending Cleveland Center
03:40PM 42.0608 -77.7886 37° Northeast 439 505 27,500 -1,344 Descending Cleveland Center
03:41PM 42.1736 -77.6719 37° Northeast 432 497 25,600 -1,645 Descending Cleveland Center
03:42PM 42.2625 -77.5778 38° Northeast 414 476 24,100 -774 Descending Cleveland Center
03:43PM 42.3503 -77.4844 38° Northeast 409 471 24,000 -48 Descending Cleveland Center
03:44PM 42.4389 -77.3911 38° Northeast 409 471 24,000 -145 Level Cleveland Center
03:45PM 42.5472 -77.2767 38° Northeast 414 476 23,700 -1,113 Descending Cleveland Center
03:46PM 42.6364 -77.1825 38° Northeast 412 474 21,700 -1,935 Descending Cleveland Center
03:47PM 42.7231 -77.0886 39° Northeast 406 467 19,700 -1,920 Descending Cleveland Center
03:49PM 42.8075 -76.9981 38° Northeast 395 455 17,700 -1,824 Descending Cleveland Center
03:50PM 42.8572 -76.8703 62° Northeast 387 445 15,900 -2,032 Descending Cleveland Center
03:51PM 42.9103 -76.7158 65° Northeast 376 433 13,500 -1,935 Descending Cleveland Center
03:52PM 42.9481 -76.5992 66° East 367 422 11,900 -1,403 Descending Cleveland Center
03:53PM 42.9853 -76.4889 65° Northeast 326 375 10,600 -1,569 Descending Cleveland Center
03:54PM 43.0081 -76.3525 77° East 288 331 8,500 -1,807 Descending Boston Center
03:54PM 43.0089 -76.3283 87° East 302 348 8,100 -1,800 Descending Boston Center
03:55PM 43.0097 -76.2425 89° East 288 331 6,700 -1,688 Descending Boston Center
03:55PM 43.0108 -76.2186 86° East 295 339 6,300 -1,475 Descending Boston Center
03:56PM 43.0106 -76.1378 90° East 282 325 5,200 -1,279 Descending Boston Center
03:56PM 43.0125 -76.1133 84° East 285 328 5,000 -179 Descending Boston Center
03:57PM 43.0136 -76.0308 89° East 220 253 5,000  Level Boston Center
03:57PM 43.0139 -76.0103 89° East 261 300 5,000 -1,377 Level Boston Center
03:58PM 43.0169 -75.9475 86° East 222 255 3,600 -816 Descending Boston Center
03:59PM 43.0311 -75.8761 75° East 225 259 3,600 -105 Level Boston Center
04:00PM 43.0833 -75.8953 345° North 201 231 3,400 -850 Descending Boston Center
04:01PM 43.1136 -75.9572 304° West 209 241 1,900 -992 Descending Boston Center
04:02PM 43.1111 -76.0236 267° West 169 194 1,400 -595 Descending Boston Center
04:03PM 43.1100 -76.0814 269° West 140 161 700 -700 Descending Boston Center

Login

Don't have an account? Register now (free) for customized features, flight alerts, and more!